Location: Ammerl�gen
(47.2167°N, 9.6000°E)
Time: 13:48:46
(UTC+00:00)

Cosmos 676 Rocket - Pass Details

Date: 06 August 2021
Orbit: 755 x 783 km, 74.0° (Epoch: 26 September)

Event Time Altitude Azimuth Distance (km) Brightness Sun altitude
Exits shadow 00:41:53 64° 177° (S) 870 3.9 -24.0°
Maximum altitude 00:42:42 79° 110° (ESE) 802 4.0 -23.9°
Drops below altitude 10° 00:48:02 10° 24° (NNE) 2,346 7.6 -23.6°
Sets 00:50:25 0° 24° (NNE) 3,276 8.7 -23.4°
